Regional Weather Roundup
Issued by NWS Green Bay, WI

Home | Current Version | Previous Version | Text Only | Print | Product List | Glossary On
Versions: 1 2 3 4 5 6 7 8 9 10 11 12 13 14 15 16 17 18 19 20 21 22 23 24 25 26 27 28 29 30 31 32 33 34 35 36 37 38 39 40 41 42 43 44 45 46 47 48 49 50
555
ASUS43 KGRB 250700
RWRGRB

NORTH-CENTRAL AND NORTHEAST WISCONSIN REGIONAL WEATHER ROUNDUP
NATIONAL WEATHER SERVICE GREEN BAY WI
200 AM CDT TUE APR 25 2017

WIZ005-009-010>012-018-019-250800-
NORTH CENTRAL WISCONSIN

CITY           SKY/WX    TMP DP  RH WIND       PRES   REMARKS
IRONWOOD       CLOUDY    57  34  41 SE10      29.65F
MANITOWISH WTR NOT AVBL
ARBOR VITAE    NOT AVBL
EAGLE RIVER    NOT AVBL
LAND O LAKES   NOT AVBL
RHINELANDER    CLOUDY    51  35  54 E8        29.71F
PHILLIPS       CLOUDY    55  35  46 SE7       29.66F
ANTIGO         NOT AVBL
TOMAHAWK       NOT AVBL
MERRILL        NOT AVBL
$$

WIZ013-073-250800-
NORTHEAST WISCONSIN

CITY           SKY/WX    TMP DP  RH WIND       PRES   REMARKS
IRON MOUNTAIN  CLOUDY    43  34  70 E6        29.76F
MARINETTE      CLOUDY    43  38  82 SW3       29.81S
$$

WIZ017-030-035>037-045-250800-
CENTRAL WISCONSIN

CITY           SKY/WX    TMP DP  RH WIND       PRES   REMARKS
MEDFORD        NOT AVBL
WAUSAU         CLOUDY    58  32  37 SE10      29.68F
MOSINEE        NOT AVBL
MARSHFIELD     CLOUDY    58  32  37 S9        29.66F
WISC RAPIDS    NOT AVBL
STEVENS POINT  NOT AVBL
WAUPACA        NOT AVBL
SHAWANO        NOT AVBL
CLINTONVILLE   NOT AVBL
WAUTOMA        CLOUDY    60  32  34 SE5       29.72F
$$

WIZ038-039-048-051-250800-
FOX VALLEY

CITY           SKY/WX    TMP DP  RH WIND       PRES   REMARKS
NWS GREEN BAY  CLOUDY    51  38  60 NE7       29.75F
APPLETON       NOT AVBL
OSHKOSH        CLOUDY    58  33  39 SE10      29.72F
FOND DU LAC    PTCLDY    56  33  42 SE10      29.73F
$$

WIZ022-050-052-250800-
EAST CENTRAL WISCONSIN

CITY           SKY/WX    TMP DP  RH WIND       PRES   REMARKS
EPHRAIM        NOT AVBL
WASHINGTON ISL NOT AVBL
STURGEON BAY   CLOUDY    52  39  61 W8        29.82R
MANITOWOC      NOT AVBL
SHEBOYGAN      CLOUDY    51  38  60 SE9       29.76F
$$

LMZ563-521-522-541>543-250800-
LAKESHORE

STATION/POSITION TIME  TEMP    WIND        PRES    VSBY  WAVE
                       AIR SEA DIR/SP/G                  HT/PER
                 (UTC) (F)     (DEG/KT/KT) (MB)    (MI)  (FT/S)
SHEBOYGAN LKSHOR 0600   48      10/  1/  2 1008.9R
KEWAUNEE LKSHORE 0630   49     180/  6/ 12 1008.4F
NORTHPORT PIER   0640   44     180/  4/  8 1008.8F
N MID LAKE BUOY  0550   43 37  120/ 14/ 14 1010.8F         2/ 4
CHAMBERS ISLAND  0630   43      CALM  /  2 1009.1R
MENOMINEE LKSHOR 0630   44      10/  4/  5 1008.4R
$$




USA.gov is the U.S. government's official web portal to all federal, state and local government web resources and services.